Tracking 27086 objects as of 22-Mar-2023
HD Live streaming from Space Station
objects crossing your sky now

STARLINK-2370

Track STARLINK-2370 now!
10-day predictions
STARLINK-2370 is classified as:


NORAD ID: 47910
Int'l Code: 2021-021BC
Perigee: 553.3 km
Apogee: 555.4 km
Inclination: 53.1 °
Period: 95.6 minutes
Semi major axis: 6925 km
RCS: Unknown
Launch date: March 14, 2021
Source: United States (US)
Launch site: AIR FORCE EASTERN TEST RANGE (AFETR)
Your satellite tracking list
Your tracking list is empty




NASA's NSSDC Master Catalog

Two Line Element Set (TLE):
1 47910U 21021BC  23081.17930586 -.00001573  00000-0 -86747-4 0  9994
2 47910  53.0534  95.6817 0001559 115.5349 244.5801 15.06395821112410
Source of the keplerian elements: AFSPC